User: anonymous   Login
Location: Caltech
(34.1382°N, 118.1253°W)
Time: 05:49:31
(UTC-07:00)
Language:

Cosmos 1980 Rocket - Orbit

View from above orbital plane
View from above orbital plane
View from above satellite
View from above satellite

Ground track
Ground track

The orbit data is extracted from the following two-line orbital elements,

1 19650U 88102B   16205.53384660 -.00000290  00000-0 -12309-3 0  9990
2 19650  71.0007 346.1531 0015868 316.5221  43.4650 14.15742962429478
Epoch (UTC): 23 July 2016 12:48:44
Eccentricity: 0.0015868
inclination: 71.0007°
perigee height: 828 km
apogee height: 851 km
right ascension of ascending node: 346.1531°
argument of perigee: 316.5221°
revolutions per day: 14.15742962
mean anomaly at epoch: 43.4650°
orbit number at epoch: 42947

The dashed part of the orbit path shows where the satellite is in the earth's shadow,  

DLR